Regional Weather Roundup
Issued by NWS

Home | Current Version | Previous Version | Text Only | Print | Product List | Glossary On
Versions: 1 2 3 4 5 6 7 8 9 10 11 12 13 14 15 16 17 18 19 20 21 22 23 24 25 26 27 28 29 30 31 32 33 34 35 36 37 38 39 40 41 42 43 44 45 46 47 48 49
000
ASUS42 KTBW 252016
RWRFL
FLORIDA REGIONAL WEATHER ROUNDUP
NATIONAL WEATHER SERVICE TAMPA BAY RUSKIN FL
400 PM EDT MON JUL 25 2016

NOTE: "FAIR" INDICATES FEW OR NO CLOUDS BELOW 12,000 FEET WITH NO
SIGNIFICANT WEATHER AND/OR OBSTRUCTIONS TO VISIBILITY.

FLZ001>010-012>015-112-114-115-252100-
PANHANDLE FLORIDA

CITY           SKY/WX    TMP DP  RH WIND       PRES   REMARKS
PENSACOLA      MOSUNNY   90  75  61 SE18      29.96F HX 100
PENSACOLA NAS  LGT RAIN  82  74  76 S20G33    29.96F
MILTON NAS     PTSUNNY   87  76  69 NE6       29.96  HX  97
CRESTVIEW      PTSUNNY   87  72  60 S16G24    29.98S THUNDER
DUKE FIELD     TSTM      78  72  82 SE15      29.98R
VALPARAISO     PTSUNNY   92  75  56 SE17G24   29.97S HX 103
MARY ESTHER    MOSUNNY   91  75  58 SE16      29.96  HX 101
PANAMA CITY    FAIR      85  75  72 S10       29.98F
TYNDALL AFB    MOSUNNY   87  75  67 SE10      29.98F HX  96
APALACHICOLA   CLOUDY    85  78  80 SE14      30.00F HX  96

STATION/POSITION SKY/WX   TEMP    WIND        PRES    WAVE   SWELL
                          AIR SEA DIR/SP/G            HT/PER HT/PER
                          (F)     (DEG/KT/KT) (MB)    (FT/S) (FT/S)
30.1N   87.6W              86 89  120/ 17/ 21 1014.0F   3/ 5
29.2N   88.2W              85 88  120/ 14/ 17 1013.4F
28.8N   86.0W              83 87  170/ 16/ 19 1014.8F   3/ 5
PANAMA CITY BEAC           82 88  120/ 15/ 17 1016.5R
TOWER C                    82     150/ 15/ 16 1016.4F
28.5N   84.5W              83 87  210/ 16/ 17 1015.9F   3/ 5

$$
FLZ011-016>038-118-127-128-134-139-239-252100-
NORTH FLORIDA

CITY           SKY/WX    TMP DP  RH WIND       PRES   REMARKS
MARIANNA       CLOUDY    88  68  51 S18G28    29.99F
TALLAHASSEE    PTSUNNY   92  73  53 S8        29.99F HX 100
PERRY          PTSUNNY   89  76  65 SW13      30.01F HX 101
LIVE OAK       FAIR      95  70  43 S6        30.03F HX 101
CROSS CITY       N/A     87  74  64 SW10      30.01F HX  95
LAKE CITY      FAIR      91  68  46 E3        30.02F HX  95
GAINESVILLE    MOSUNNY   94  69  44 SE9       30.00F HX  99
WILLISTON      FAIR      84  73  70 NE7       30.02S
PALATKA        CLOUDY    90  73  58 E10       30.02F HX  98
MAYPORT NAS    MOSUNNY   90  71  53 SE16      30.04F HX  96
JACKSONVILLE   MOSUNNY   94  69  44 E15       30.01F HX  99
JAX NAS        MOSUNNY   93  69  45 E12       30.02F HX  98
JAX CECIL      MOSUNNY   91  70  49 S8        30.01F HX  97
FERNANDINA BEA FAIR      90  72  55 SE13      30.03F HX  96
ST AUGUSTINE   SUNNY     89  74  60 E18       30.04F HX  98
PALM COAST     SUNNY     90  72  55 E12G18    30.05S HX  96

STATION/POSITION SKY/WX   TEMP    WIND        PRES    WAVE   SWELL
                          AIR SEA DIR/SP/G            HT/PER HT/PER
                          (F)     (DEG/KT/KT) (MB)    (FT/S) (FT/S)
SHELL POINT                87     150/ 15/ 17 1015.6
KEATON BEACH               84     180/ 15/ 17 1016.1F
CEDAR KEY                  85     220/  9/ 11 1017.6F
FERNANDINA                 89 87  120/  6/ 12 1017.7F
30.7N   81.3W                 86                N/A     2/ 9
MAYPORT                    87 85  130/  9/ 14 1017.9F
31.4N   80.9W              84 88  160/  8/ 10 1017.6    1/ 9   2/ 9
ST AUGUSTINE               83 87  120/ 14/ 16 1018.2F

$$
FLZ040-043>046-052-053-057-058-063-144-252100-
INTERIOR CENTRAL FLORIDA

CITY           SKY/WX    TMP DP  RH WIND       PRES   REMARKS
OCALA          MOSUNNY   91  66  43 SW9       30.01F
THE VILLAGES     N/A     91  72  52 MISG      29.91F HX  98
LEESBURG       MOSUNNY   91  70  49 SE8       30.03F HX  96
SANFORD        PTSUNNY   88  73  61 E15       30.03F HX  95
ORLANDO EXEC   MOSUNNY   91  70  49 S12       30.02F HX  96
ORLANDO INTL   PTSUNNY   91  70  49 SE7       30.02F HX  96
KISSIMMEE      MOSUNNY   90  72  55 SE10      30.03F HX  97
WINTER HAVEN   PTSUNNY   91  67  44 S5        30.03F
LAKELAND       PTSUNNY   90  72  55 S7        30.03F HX  96
BARTOW         MOSUNNY   90  68  48 SE7       30.03F
OKEECHOBEE     PTSUNNY   88  75  66 E7        30.03F HX  97

$$
FLZ041-047-054-059-064-141-147-252100-
EAST CENTRAL FLORIDA

CITY           SKY/WX    TMP DP  RH WIND       PRES   REMARKS
ORMOND BEACH   MOSUNNY   86  73  66 SE12G17   30.05F
DAYTONA BEACH  CLOUDY    86  72  62 VRB6G16   30.05F
NEW SMYRNA BEA MOSUNNY   88  73  62 SE12      30.06F HX  96
JFK SPACE CTR  PTSUNNY   86  72  61 SE10      30.03F
TITUSVILLE     PTSUNNY   88  70  55 SE17      30.04F
CAPE CANAVERAL SUNNY     90  71  53 SE10G18   30.03F HX  95
PATRICK AFB    SUNNY     89  74  61 E14       30.03F HX  97
MELBOURNE      MOSUNNY   89  72  56 E15G21    30.03F HX  96
VERO BEACH     MOSUNNY   87  73  62 E14       30.04F
FT PIERCE      CLOUDY    86  75  69 SE15      30.04F HX  95
STUART         MOSUNNY   91  77  62 E15       30.05F HX 105

STATION/POSITION SKY/WX   TEMP    WIND        PRES    WAVE   SWELL
                          AIR SEA DIR/SP/G            HT/PER HT/PER
                          (F)     (DEG/KT/KT) (MB)    (FT/S) (FT/S)
28.5N   80.2W              83 87  140/  8/ 12 1018.4F
28.9N   78.5W              85 88  140/  4/  6 1018.6F
TRIDENT PIER               87 87  130/  7/ 10 1018.1F
28.4N   80.5W                 87                N/A     1/ 8
27.5N   80.2W                 86                N/A     1/ 8

$$
FLZ050-056-061-142-242-148-248-149-249-151-251-155-255-
160-260-252100-
WEST CENTRAL FLORIDA

CITY           SKY/WX    TMP DP  RH WIND       PRES   REMARKS
CRYSTAL RIVER  FAIR      90  73  58 W8        30.01F HX  98
INVERNESS      FAIR      93  72  49 SE8       30.01F HX 100
BROOKSVILLE    SUNNY     91  72  53 S12       30.02F HX  98
ZEPHYRHILLS    FAIR      88  65  45 SE7       30.03F
CLEARWATER AIR RAIN      77  73  88 E15G23    30.03S
ST PETE CLEARW LGT RAIN  81  71  71 E7        30.02F
TAMPA INTL     MOSUNNY   87  76  69 S15G21    30.02F HX  97
TAMPA EXEC     MOSUNNY   95  72  46 S6        30.02F HX 103
PLANT CITY     MOSUNNY   91  72  52 S7        30.04F HX  98
MACDILL AFB    PTSUNNY   81  77  89 SW7       30.02F
PETER O KNIGHT SUNNY     91  77  62 SW17      30.03S HX 105
ST PETERSBURG  MOSUNNY   88  69  53 S12       30.01F
SARASOTA       MOSUNNY   90  74  59 SW9       30.01F HX  99
VENICE         NOT AVBL

STATION/POSITION SKY/WX   TEMP    WIND        PRES    WAVE   SWELL
                          AIR SEA DIR/SP/G            HT/PER HT/PER
                          (F)     (DEG/KT/KT) (MB)    (FT/S) (FT/S)
27.3N   84.2W                 86                N/A     2/ 4
CLEARWATER BEACH           85 87  210/ 11/ 13 1017.2F
MIDDLE TAMPA BAY                  210/ 15/ 15 1017.5F
VENICE                     87 88  220/ 10/ 12 1016.2F

$$
FLZ066-069-070-075>078-162-262-165-265-252100-
SOUTHWEST FLORIDA AND KEYS

CITY           SKY/WX    TMP DP  RH WIND       PRES   REMARKS
PUNTA GORDA    MOSUNNY   90  69  50 SE3       30.03F
FT MYERS       RAIN      79  74  84 S10G22    30.03R
SOUTHWEST INTL LGT RAIN  78  73  84 W15       30.04R
NAPLES         LGT RAIN  76  75  97 NE8       30.05R
MARCO ISLAND   SUNNY     82  72  69 N7        30.05S
MARATHON       SUNNY     88  78  72 SE8       30.02F HX 101
KEY WEST NAS   PTSUNNY   89  76  65 SE13      30.01F HX 100
KEY WEST INTL  MOSUNNY   89  79  72 SE10      30.02F HX 104

STATION/POSITION SKY/WX   TEMP    WIND        PRES    WAVE   SWELL
                          AIR SEA DIR/SP/G            HT/PER HT/PER
                          (F)     (DEG/KT/KT) (MB)    (FT/S) (FT/S)
NAPLES                        87              1017.1F
26.0N   85.6W              83 86   80/  2/  2 1016.5F   2/ 5   2/ 5
DRY TORTUGAS               85     120/ 11/ 12 1016.3F
SAND KEY                   85     130/ 10/ 12 1016.8F
LONG KEY                   85 87  130/ 10/ 11 1017.3F

$$
FLZ067-068-071>074-168-172>174-252100-
SOUTHEAST FLORIDA

CITY           SKY/WX    TMP DP  RH WIND       PRES   REMARKS
W PALM BEACH   CLOUDY    90  73  57 E15       30.04F HX  98
BOCA RATON     MOSUNNY   88  79  74 SE12G17   30.04F HX 102
FT LAUDER-EXEC MOSUNNY   90  73  57 SE10G21   30.03F HX  98
FT LAUDERDALE  PTSUNNY   88  77  69 E15G23    30.04S HX 100
POMPANO BEACH  SUNNY     89  75  63 E13       30.03F HX  99
PEMBROKE PINES MOSUNNY   92  75  57 E14G20    30.05F HX 103
OPA LOCKA      MOSUNNY   91  75  59 E12       30.03F HX 101
MIAMI          PTSUNNY   89  75  63 SE14      30.03F HX  99
WEST KENDALL   MOSUNNY   88  75  65 E14       30.03F HX  97
HOMESTEAD      MOSUNNY   88  75  66 E8        30.03F HX  98

STATION/POSITION SKY/WX   TEMP    WIND        PRES    WAVE   SWELL
                          AIR SEA DIR/SP/G            HT/PER HT/PER
                          (F)     (DEG/KT/KT) (MB)    (FT/S) (FT/S)
PORT EVERGLADES            89     100/  4/  9 1017.8F
VIRGINIA KEY               85 89   90/  9/ 11 1018.0F
LAKE WORTH                        140/ 10/ 11   N/A
FOWEY ROCKS                85 84  130/ 12/ 12 1017.6F
SETTLEMENT POINT           86     170/  9/ 12 1018.2F

$$




USA.gov is the U.S. government's official web portal to all federal, state and local government web resources and services.